This is the latest recevied weather packets stored in our database for station/object 9A3XK-13. If no packets are shown the sender has not sent any weather packets the latest 10 day(s).
| Time | Temp. | Humidity | Pressure | Rain* | Wind** | Luminosity | Snow |
|---|---|---|---|---|---|---|---|
| 1777748716 | 16.11° C | 59% | 1018.8 hPa | 0 mm | - | 0 W/m² | - |
| 1777748116 | 16.67° C | 58% | 1018.8 hPa | 0 mm | - | 0 W/m² | - |
| 1777747816 | 17.22° C | 56% | 1018.7 hPa | 0 mm | - | 0 W/m² | - |
| 1777746916 | 17.78° C | 52% | 1018.7 hPa | 0 mm | - | 0 W/m² | - |
| 1777746316 | 18.33° C | 50% | 1018.6 hPa | 0 mm | - | 0 W/m² | - |
| 1777746016 | 18.33° C | 49% | 1018.5 hPa | 0 mm | - | 0 W/m² | - |
| 1777745716 | 18.33° C | 50% | 1018.5 hPa | 0 mm | - | 0 W/m² | - |
| 1777745415 | 18.89° C | 49% | 1018.5 hPa | 0 mm | - | 0 W/m² | - |
| 1777745116 | 18.89° C | 48% | 1018.4 hPa | 0 mm | - | 0 W/m² | - |
| 1777744816 | 19.44° C | 48% | 1018.4 hPa | 0 mm | - | 0 W/m² | - |
| 1777744216 | 20° C | 46% | 1018.4 hPa | 0 mm | - | 7 W/m² | - |
| 1777743316 | 20.56° C | 45% | 1018.3 hPa | 0 mm | - | 15 W/m² | - |
| 1777742716 | 21.11° C | 42% | 1018.3 hPa | 0 mm | - | 19 W/m² | - |
| 1777742416 | 21.11° C | 41% | 1018.3 hPa | 0 mm | - | 22 W/m² | - |
| 1777742116 | 21.11° C | 41% | 1018.3 hPa | 0 mm | - | 25 W/m² | - |
| 1777741816 | 21.67° C | 40% | 1018.4 hPa | 0 mm | - | 26 W/m² | - |
| 1777741516 | 21.67° C | 39% | 1018.4 hPa | 0 mm | - | 29 W/m² | - |
| 1777741215 | 21.67° C | 39% | 1018.4 hPa | 0 mm | - | 48 W/m² | - |
| 1777740316 | 22.22° C | 39% | 1018.6 hPa | 0 mm | - | 37 W/m² | - |
| 1777739716 | 22.78° C | 37% | 1018.6 hPa | 0 mm | - | 96 W/m² | - |
| 1777739416 | 22.78° C | 36% | 1018.6 hPa | 0 mm | - | 67 W/m² | - |
| 1777739116 | 22.78° C | 35% | 1018.7 hPa | 0 mm | - | 61 W/m² | - |
| 1777738516 | 23.33° C | 35% | 1018.8 hPa | 0 mm | - | 258 W/m² | - |
| 1777738216 | 23.33° C | 36% | 1018.8 hPa | 0 mm | - | 298 W/m² | - |
| 1777737916 | 22.78° C | 36% | 1018.8 hPa | 0 mm | - | 324 W/m² | - |
* Rain latest hour (hover to see other rain measurements)
** Current wind speed in m/s (hover to see current wind gust speed)